Columbia, SC

12:31 AM EDT on September 21, 2017 (GMT -0400)
Columbia Metro

Weather History for KCAE - April, 2014

Change the Weather History Date:

Friday, April 11, 2014

  Actual Average Record
Temperature  
Mean Temperature 65 °F 62 °F  
Max Temperature 81 °F 75 °F 89 °F (2001)
Min Temperature 49 °F 49 °F 29 °F (1960)
Degree Days  
Heating Degree Days 0 5  
Month to date heating degree days 22 61  
Since 1 July heating degree days 2498 2470  
Cooling Degree Days 0 2  
Month to date cooling degree days 22 18  
Year to date cooling degree days 30 40  
Growing Degree Days 14 (Base 50)    
Moisture  
Dew Point 46 °F    
Average Humidity 54    
Maximum Humidity 77    
Minimum Humidity 30    
Precipitation  
Precipitation 0.00 in 0.09 in 3.03 in (1956)
Month to date precipitation 0.70 1.00  
Year to date precipitation 10.95 11.92  
Sea Level Pressure  
Sea Level Pressure 30.19 in    
Wind  
Wind Speed 8 mph (SW)    
Max Wind Speed 24 mph    
Max Gust Speed 28 mph    
Visibility 10 miles    
Events      
T = Trace of Precipitation, MM = Missing Value Source: NWS Daily Summary

Daily Weather History Graph

Daily Weather History Graph

Search for Another Location

Airport or City:

Trip Planner

Search our weather history database for the weather conditions in past years. The results will help you decide how hot, cold, wet, or windy it might be!

Date:

Astronomy

Apr. 11, 2014 Rise Set
Actual Time 6:58 AM EDT 7:52 PM EDT
Civil Twilight 6:33 AM EDT 8:18 PM EDT
Nautical Twilight 6:03 AM EDT 8:48 PM EDT
Astronomical Twilight 5:32 AM EDT 9:19 PM EDT
Moon 4:40 PM EDT (4/11) 4:43 AM EDT (4/11)
Length of Visible Light 13h 45m
Length of Day
12h 54m
Waxing Gibbous, 87% of the Moon is Illuminated
Apr 11
Waxing Gibbous
Apr 15
Full
Apr 22
Last Quarter
Apr 29
New
May 6
First Quarter

Hourly Weather History & Observations

Time (EDT) Temp. Dew Point Humidity Pressure Visibility Wind Dir Wind Speed Gust Speed Precip Events Conditions
12:56 AM 59.0 °F 42.1 °F 53% 30.23 in 10.0 mi SW 5.8 mph - N/A   Clear
1:56 AM 57.0 °F 42.1 °F 57% 30.22 in 10.0 mi Calm Calm - N/A   Clear
2:56 AM 54.0 °F 42.1 °F 64% 30.21 in 10.0 mi Calm Calm - N/A   Clear
3:56 AM 53.1 °F 43.0 °F 69% 30.21 in 10.0 mi Calm Calm - N/A   Clear
4:56 AM 50.0 °F 43.0 °F 77% 30.21 in 10.0 mi WSW 4.6 mph - N/A   Clear
5:56 AM 50.0 °F 43.0 °F 77% 30.22 in 10.0 mi WSW 4.6 mph - N/A   Clear
6:56 AM 52.0 °F 44.1 °F 74% 30.23 in 10.0 mi West 3.5 mph - N/A   Partly Cloudy
7:56 AM 55.0 °F 46.0 °F 72% 30.26 in 10.0 mi WSW 5.8 mph - N/A   Partly Cloudy
8:56 AM 60.1 °F 46.9 °F 62% 30.27 in 10.0 mi WSW 6.9 mph - N/A   Partly Cloudy
9:56 AM 64.9 °F 46.9 °F 52% 30.27 in 10.0 mi SW 8.1 mph - N/A   Partly Cloudy
10:56 AM 71.1 °F 46.9 °F 42% 30.27 in 10.0 mi SW 9.2 mph - N/A   Clear
11:56 AM 73.9 °F 46.9 °F 38% 30.25 in 10.0 mi WSW 15.0 mph 19.6 mph N/A   Partly Cloudy
12:56 PM 77.0 °F 46.0 °F 33% 30.22 in 10.0 mi SSW 13.8 mph - N/A   Mostly Cloudy
1:56 PM 78.1 °F 46.0 °F 32% 30.19 in 10.0 mi SSW 13.8 mph 21.9 mph N/A   Mostly Cloudy
2:56 PM 80.1 °F 48.0 °F 32% 30.16 in 10.0 mi SW 12.7 mph - N/A   Mostly Cloudy
3:56 PM 81.0 °F 46.9 °F 30% 30.12 in 10.0 mi SSW 16.1 mph 23.0 mph N/A   Mostly Cloudy
4:56 PM 80.1 °F 46.9 °F 31% 30.11 in 10.0 mi SW 16.1 mph 25.3 mph N/A   Mostly Cloudy
5:56 PM 78.1 °F 46.9 °F 33% 30.10 in 10.0 mi WSW 9.2 mph 19.6 mph N/A   Mostly Cloudy
6:56 PM 77.0 °F 46.9 °F 34% 30.10 in 10.0 mi SW 13.8 mph - N/A   Mostly Cloudy
7:56 PM 73.9 °F 48.0 °F 40% 30.12 in 10.0 mi SW 5.8 mph - N/A   Mostly Cloudy
8:56 PM 70.0 °F 48.9 °F 47% 30.13 in 10.0 mi SSW 4.6 mph - N/A   Scattered Clouds
9:56 PM 66.0 °F 48.9 °F 54% 30.14 in 10.0 mi South 4.6 mph - N/A   Partly Cloudy
10:56 PM 64.0 °F 50.0 °F 60% 30.16 in 10.0 mi South 6.9 mph - N/A   Clear
11:56 PM 63.0 °F 50.0 °F 63% 30.17 in 10.0 mi SSW 8.1 mph - N/A   Clear